Home > Weather > Road Town > Past weeks

Flag for British Virgin Islands Weather for the Past 2 Weeks in Road Town, Tortola, British Virgin Islands

Now
75 °F

Clear.


Feels Like: 75 °F
Forecast: 76 / 80 °F
Wind: 5 mph from Northeast

Location: Cyril E. King International Airport

Current Time: Feb 11, 2016 at 5:03:34 AM

Latest Report: Feb 11, 2016 at 3:53 AM


Visibility: 10 mi

Pressure: 30.05 "Hg

Humidity: 82%

Dew point: 69 °F

Location of Road TownLocation

Historic Weather in Road Town — Graph

°F

Road Town Temperature Yesterday

Maximum temperature yesterday: 82 °F (at 9:53 AM)
Minimum temperature yesterday: 75 °F (at 6:53 AM)
Average temperature yesterday: 79 °F

High & Low Weather Summary for the Past Weeks

 TemperatureHumidityPressure
High84 °F (Jan 27, 1:53 PM)97% (Jan 30, 7:53 AM)30.15 "Hg (Jan 30, 7:53 AM)
Low71 °F (Feb 5, 6:53 AM)53% (Feb 4, 10:53 AM)29.89 "Hg (Feb 4, 3:53 PM)
Average78 °F75%30.03 "Hg
* Reported Jan 27 2:53 AM — Feb 11 2:53 AM, Road Town, Weather by CustomWeather, © 2016

Note: Actual official high and low records may vary slightly from our data, if they occured in-between our weather recording intervals... More about our weather records

Advertising

Road Town Weather History for the Previous 24 Hours

 ConditionsComfort  
Time TempWeatherWind HumidityBarometerVisibility
2:53 AM
Thu, Feb 11
75 °FClear.3 mph82%30.06 "Hg10 mi
1:53 AM75 °FClear.5 mph82%30.07 "Hg10 mi
12:53 AM77 °FClear.3 mph77%30.09 "Hg10 mi
11:53 PM
Wed, Feb 10
77 °FClear.7 mph77%30.10 "Hg10 mi
10:53 PM77 °FClear.8 mph74%30.11 "Hg10 mi
9:53 PM77 °FClear.6 mph79%30.11 "Hg10 mi
8:53 PM76 °FClear.5 mph80%30.11 "Hg10 mi
7:53 PM77 °FClear.3 mph77%30.09 "Hg10 mi
6:53 PM78 °FClear.8 mph74%30.08 "Hg10 mi
5:53 PM79 °FPartly sunny.9 mph74%30.07 "Hg10 mi
4:53 PM81 °FSunny.8 mph69%30.05 "Hg10 mi
3:53 PM80 °FSunny.13 mph71%30.04 "Hg10 mi
2:53 PM81 °FSunny.13 mph69%30.04 "Hg10 mi
1:53 PM82 °FSunny.16 mph67%30.06 "Hg10 mi
12:53 PM82 °FSunny.13 mph70%30.09 "Hg10 mi
11:53 AM82 °FBroken clouds.17 mph72%30.12 "Hg10 mi
10:53 AM82 °FPassing clouds.15 mph70%30.14 "Hg10 mi
9:53 AM82 °FPassing clouds.13 mph72%30.14 "Hg10 mi
8:53 AM81 °FScattered clouds.13 mph74%30.13 "Hg10 mi
8:03 AM79 °FBroken clouds.15 mph77%30.11 "Hg10 mi
6:53 AM75 °FSunny.6 mph85%30.08 "Hg10 mi
5:53 AM76 °FPassing clouds.7 mph85%30.07 "Hg10 mi
Weather by CustomWeather, © 2016

See weather overviewHow to use our weather pages